FW0019 Weather Reports


time (UTC)temp
C
wind
direction
speed
KPH
gust
KPH
rain 1hr
cm
rain 24hr
cm
rain mn
cm
humidity
%
barometer
mb
20260831091552 19 129 11.3 20.9 0.00 0.00 0.00 18 878.1
20260831090050 19 140 9.7 19.3 0.00 0.00 0.00 17 878.1
20260831084630 20 81 9.7 25.7 0.00 0.00 0.00 16 878.3
20260831083050 20 88 9.7 20.9 0.00 0.00 0.00 16 878.3
20260831081544 20 73 9.7 17.7 0.00 0.00 0.00 15 878.5
20260831080100 20 113 9.7 20.9 0.00 0.00 0.00 16 878.5
20260831074548 20 67 9.7 17.7 0.00 0.00 0.00 16 878.6
20260831073042 20 98 9.7 17.7 0.00 0.00 0.00 16 878.6
20260831071544 20 119 8.0 16.1 0.00 0.00 0.00 16 878.7
20260831070036 20 98 8.0 16.1 0.00 0.00 0.00 19 878.8
20260831064543 20 86 4.8 19.3 0.00 0.00 0.00 24 878.9
20260831063036 20 83 8.0 17.7 0.00 0.00 0.00 25 878.7
20260831061529 20 111 8.0 20.9 0.00 0.00 0.00 25 878.7
20260831060031 21 77 9.7 20.9 0.00 0.00 0.00 26 878.6
20260831054527 20 76 11.3 19.3 0.00 0.00 0.00 28 878.6
20260831053027 20 105 6.4 16.1 0.00 0.00 0.00 30 878.6
20260831051535 20 82 8.0 20.9 0.00 0.00 0.00 30 878.6
20260831050026 20 105 8.0 22.5 0.00 0.00 0.00 29 878.6
20260831044525 20 93 11.3 17.7 0.00 0.00 0.00 29 878.6
20260831043023 20 94 8.0 17.7 0.00 0.00 0.00 31 878.6
20260831041522 20 75 9.7 20.9 0.00 0.00 0.00 32 878.7
20260831040026 20 81 9.7 17.7 0.00 0.00 0.00 33 878.5
20260831034520 20 109 6.4 16.1 0.00 0.00 0.00 35 878.4
20260831033021 20 94 6.4 17.7 0.00 0.00 0.00 38 878.2
20260831031517 19 108 4.8 14.5 0.00 0.00 0.00 47 878.1
20260831030015 19 94 6.4 16.1 0.00 0.00 0.00 57 878.0
20260831024514 20 83 11.3 16.1 0.00 0.00 0.00 52 878.0
20260831023013 20 89 8.0 14.5 0.00 0.00 0.00 46 878.0
20260831021517 21 94 8.0 16.1 0.00 0.00 0.00 49 878.0
20260831020013 21 59 6.4 16.1 0.00 0.00 0.00 44 877.9
20260831014514 22 113 12.9 25.7 0.00 0.00 0.00 40 877.9
20260831013012 23 132 11.3 25.7 0.00 0.00 0.00 36 877.8
20260831011516 23 109 14.5 29.0 0.00 0.00 0.00 34 877.8
20260831010010 24 122 17.7 30.6 0.00 0.00 0.00 34 877.8
20260831004509 25 132 16.1 29.0 0.00 0.00 0.00 32 877.7
20260831003009 25 115 14.5 29.0 0.00 0.00 0.00 30 877.9
20260831001508 26 80 16.1 40.2 0.00 0.00 0.00 29 878.0
20260831000007 26 136 14.5 29.0 0.00 0.00 0.00 29 878.1
20260830234507 27 67 11.3 35.4 0.00 0.00 0.00 29 878.1
20260830233005 27 114 12.9 37.0 0.00 0.00 0.00 28 878.2
20260830231504 27 178 17.7 25.7 0.00 0.00 0.00 28 878.1
20260830230003 27 157 14.5 29.0 0.00 0.00 0.00 29 878.3
20260830224502 27 123 17.7 27.4 0.00 0.00 0.00 28 878.4
20260830223002 27 154 14.5 29.0 0.00 0.00 0.00 29 878.5
20260830221501 27 132 19.3 29.0 0.00 0.00 0.00 30 878.6
20260830220001 27 146 11.3 27.4 0.00 0.00 0.00 33 878.8
20260830214601 27 156 19.3 37.0 0.00 0.00 0.00 34 878.9
20260830214502 28 96 16.1 30.6 0.00 0.00 0.00 34 878.9
20260830213101 28 133 14.5 35.4 0.00 0.00 0.00 34 879.0
20260830211559 28 144 17.7 30.6 0.00 0.00 0.00 34 879.1
20260830210106 28 164 14.5 29.0 0.00 0.00 0.00 35 879.2
20260830204559 28 142 19.3 35.4 0.00 0.00 0.00 34 879.3
20260830203059 28 164 12.9 27.4 0.00 0.00 0.00 35 879.4
20260830201557 28 117 12.9 29.0 0.00 0.00 0.00 36 879.6
20260830200057 28 94 11.3 30.6 0.00 0.00 0.00 36 879.6
20260830194602 28 136 12.9 25.7 0.00 0.00 0.00 35 879.6
20260830193055 28 107 9.7 29.0 0.00 0.00 0.00 33 879.8
20260830191553 28 96 17.7 32.2 0.00 0.00 0.00 31 879.8
20260830190054 28 148 16.1 27.4 0.00 0.00 0.00 31 879.9
20260830184551 27 105 12.9 24.1 0.00 0.00 0.00 31 880.1
20260830183051 28 135 11.3 22.5 0.00 0.00 0.00 32 880.1
20260830181548 27 162 8.0 20.9 0.00 0.00 0.00 31 880.1
20260830180046 27 43 6.4 17.7 0.00 0.00 0.00 30 880.1
20260830174544 27 128 11.3 20.9 0.00 0.00 0.00 30 880.0
20260830173042 27 134 9.7 22.5 0.00 0.00 0.00 31 879.8
20260830171544 27 126 9.7 19.3 0.00 0.00 0.00 31 879.8
20260830170037 26 107 8.0 16.1 0.00 0.00 0.00 32 879.8
20260830164535 26 101 8.0 20.9 0.00 0.00 0.00 32 879.6
20260830163041 25 109 9.7 22.5 0.00 0.00 0.00 33 879.4
20260830161530 25 109 9.7 20.9 0.00 0.00 0.00 33 879.2
20260830160049 25 101 11.3 22.5 0.00 0.00 0.00 33 879.2
20260830154526 25 84 11.3 22.5 0.00 0.00 0.00 35 879.2
20260830153023 24 128 9.7 25.7 0.00 0.00 0.00 36 879.2
20260830151519 23 112 11.3 20.9 0.00 0.00 0.00 38 879.2
20260830150019 23 134 11.3 20.9 0.00 0.00 0.00 39 879.1
20260830144515 22 96 11.3 17.7 0.00 0.00 0.00 39 879.2
20260830143016 22 104 8.0 20.9 0.00 0.00 0.00 40 879.1
20260830141512 22 103 8.0 24.1 0.00 0.00 0.00 40 879.1
20260830140008 22 89 9.7 16.1 0.00 0.00 0.00 40 879.0
20260830134508 21 85 9.7 17.7 0.00 0.00 0.00 41 878.8
20260830133005 20 97 8.0 12.9 0.00 0.00 0.00 43 878.6
20260830131504 20 133 8.0 16.1 0.00 0.00 0.00 44 878.6
20260830130004 20 109 4.8 12.9 0.00 0.00 0.00 47 878.5
20260830124509 20 109 9.7 16.1 0.00 0.00 0.00 48 878.5
20260830123002 20 73 8.0 14.5 0.00 0.00 0.00 51 878.6
20260830121503 20 98 6.4 16.1 0.00 0.00 0.00 52 878.5
20260830120002 20 105 8.0 16.1 0.00 0.00 0.00 52 878.6
20260830114613 20 90 8.0 16.1 0.00 0.00 0.00 52 878.5
20260830113100 20 90 8.0 17.7 0.00 0.00 0.00 51 878.5
20260830111558 20 75 6.4 14.5 0.00 0.00 0.00 50 878.5
20260830110057 20 84 11.3 16.1 0.00 0.00 0.00 50 878.5
20260830104557 19 79 8.0 19.3 0.00 0.00 0.00 51 878.4
20260830103056 20 92 8.0 14.5 0.00 0.00 0.00 51 878.4
20260830101553 20 127 8.0 17.7 0.00 0.00 0.00 51 878.4
20260830100053 20 69 8.0 16.1 0.00 0.00 0.00 50 878.3
20260830094550 20 92 9.7 17.7 0.00 0.00 0.00 49 878.3